Regional Weather Roundup
Issued by NWS Jackson, KY

Home | Current Version | Previous Version | Text Only | Print | Product List | Glossary On
Versions: 1 2 3 4 5 6 7 8 9 10 11 12 13 14 15 16 17 18 19 20 21 22 23 24 25 26 27 28
000
ASUS43 KJKL 182110
RWRJKL

EAST KENTUCKY HOURLY WEATHER ROUNDUP
NATIONAL WEATHER SERVICE JACKSON KY
500 PM EDT FRI AUG 18 2017

NOTE: "FAIR" INDICATES FEW OR NO CLOUDS BELOW 12,000 FEET WITH
NO SIGNIFICANT WEATHER AND/OR OBSTRUCTIONS TO VISIBILITY.

* THESE REPORTS ARE NOT UNDER NWS QUALITY CONTROL AND MAY NOT
  REPORT WEATHER SUCH AS PRECIPITATION AND FOG.

KYZ079-080-083-085-087-088-110-112-115-119-120-182200
...EASTERN KENTUCKY...

CITY           SKY/WX    TMP DP  RH WIND       PRES   REMARKS
JACKSON        SUNNY     83  64  52 NW12G18   29.95S
LONDON         SUNNY     84  62  47 W10       29.96F
SOMERSET*      SUNNY     81  61  50 W10       29.97F
MONTICELLO*    MOSUNNY   82  68  62 NW10      29.98F
WILLIAMSBURG*  CLEAR     82  64  54 NW6       29.97S
MIDDLESBORO*   SUNNY     85  66  53 NW7       29.96S
HARLAN APT*    CLEAR     84  63  48 W9        29.96F
PIKE CO APT*   PTSUNNY   80  75  87 CALM      29.95S
BIG SANDY APT* MOCLDY    85  68  56 W6        29.93S
MOREHEAD APT*  CLEAR     82  63  51 W7G14     29.94F
$$

KYZ035-036-041-042-044-050-067-078-099-182200
...CENTRAL KENTUCKY...

CITY           SKY/WX    TMP DP  RH WIND       PRES   REMARKS
MT STERLING*   MOSUNNY   82  64  54 W9        29.95S
FLEMING/MASON* SUNNY     83  61  47 NW9       29.93S
DANVILLE*      MOSUNNY   84  63  48 NW12      29.97S
LEXINGTON      MOSUNNY   83  63  50 W6        29.94F
FRANKFORT      MOSUNNY   85  61  44 W12G17    29.92F
LOUISVILLE     PTSUNNY   87  63  44 W13G20    29.92S
LEBANON*         N/A     84  63  48 W8        29.95S
GLASGOW*       MOSUNNY   85  63  46 W5        29.96F
BOWLING GREEN  SUNNY     85  62  46 SW8       29.95F
$$

KYZ091>093-OHZ055-061-077-WVZ005-015-034-035-042-182200
...SOUTHERN OHIO/WEST VIRGINIA...

CITY           SKY/WX    TMP DP  RH WIND       PRES   REMARKS
COVINGTON      MOSUNNY   84  64  50 W15       29.91F
COLUMBUS       MOSUNNY   82  64  54 W17       29.86F
DAYTON         MOSUNNY   82  63  52 W15G23    29.90S
WILMINGTON     MOSUNNY   82  64  54 W15       29.89F
HUNTINGTON     MOSUNNY   86  63  45 W10G17    29.89S
CHARLESTON     MOSUNNY   86  68  54 W8        29.87F
PINEVILLE*     CLOUDY    77  69  74 MISG      30.01S
BECKLEY        CLOUDY    77  65  66 W7        29.98S
BLUEFIELD      CLOUDY    67  65  93 W7        30.04R
LOGAN CO APT*  MOCLDY    79  72  78 S5        29.94S
$$

VAZ002-007-008-TNZ017-027-036-066-071-182200
...SOUTHWEST VIRGINIA/EAST TENNESSEE...

CITY           SKY/WX    TMP DP  RH WIND       PRES   REMARKS
WISE*          MOSUNNY   79  63  57 W12       30.03F
JONESVILLE*      N/A     86  66  51 W7        29.97S
ABINGDON*      MOSUNNY   80  70  70 N3        29.99F
BRISTOL        PTSUNNY   81  69  67 NW3       29.96F
MORRISTOWN*    CLEAR     86  70  58 W9        29.94F HX  90
SEVIERVILLE*   CLEAR     88  66  48 W8        29.93F HX  90
KNOXVILLE      MOSUNNY   87  65  47 W10       29.93F
LAFOLLETTE*    PTCLDY    86  64  48 VRB5      29.99S
OAK RIDGE      SUNNY     90  62  39 W7        29.95F HX  90
CROSSVILLE     MOSUNNY   80  62  54 NW8       30.02F
NASHVILLE      MOSUNNY   89  62  40 N9        29.97F
$$

...KEY TO REMARKS...
VSB - VISIBILITY IN MILES
WCI - WIND CHILL INDEX
HX  - HEAT INDEX

$$




USA.gov is the U.S. government's official web portal to all federal, state and local government web resources and services.